Home   Weather   Jessore   Past weeks

Flag for Bangladesh Past Weather in Jessore, Bangladesh — Yesterday and Last 2 Weeks

Now
82 °F

Warm.


Feels Like: 92 °F
Forecast: 80 / 92 °F
Wind: 1 mph from North

Location: Phrae

Current Time: Jun 28, 2017 at 9:39:48 pm

Latest Report: Jun 28, 2017 at 9:00 pm


Visibility: 0 mi

Pressure: 29.77 "Hg

Humidity: 89%

Dew Point: 79 °F

Location of JessoreLocation

Past Weather in Jessore — Graph

°F

Jessore Temperature Yesterday

Maximum temperature yesterday: 93 °F (at 1:00 pm)
Minimum temperature yesterday: 77 °F (at 4:00 am)
Average temperature yesterday: 84 °F

High & Low Weather Summary for the Past Weeks

 TemperatureHumidityPressure
High93 °F (Jun 17, 12:00 pm)100% (Jun 13, 11:00 pm)29.86 "Hg (Jun 13, 11:00 pm)
Low75 °F (Jun 21, 8:00 pm)49% (Jun 17, 12:00 pm)29.56 "Hg (Jun 24, 5:00 pm)
Average84 °F75%29.72 "Hg
* Reported Jun 13 8:00 pm — Jun 28 8:00 pm, Jessore. Weather by CustomWeather, © 2017

Note: Actual official high and low records may vary slightly from our data, if they occured in-between our weather recording intervals... More about our weather records

Advertising

Jessore Weather History for the Previous 24 Hours

Scroll right to see more
 ConditionsComfort  
Time TempWeatherWind HumidityBarometerVisibility
8:00 pm
Wed, Jun 28
82 °FWarm.No wind84%29.74 "Hg1 mi
7:00 pm82 °FWarm.No wind84%29.74 "Hg1 mi
6:00 pm84 °FWarm.2 mph74%29.71 "Hg1 mi
5:00 pm86 °FWarm.3 mph70%29.68 "Hg1 mi
4:00 pm88 °FWarm.5 mph66%29.68 "Hg1 mi
3:00 pm88 °FWarm.5 mph66%29.68 "Hg1 mi
2:00 pm86 °FBroken clouds.2 mph70%29.71 "HgN/A
1:00 pm82 °FWarm.6 mph84%29.71 "Hg1 mi
12:00 pm86 °FRain. Partly sunny.5 mph75%29.74 "Hg3 mi
11:00 am86 °FPartly sunny.No wind70%29.77 "HgN/A
10:00 am86 °FWarm.9 mph66%29.77 "Hg2 mi
9:00 am86 °FPartly sunny.8 mph66%29.77 "HgN/A
8:00 am86 °FWarm.1 mph70%29.77 "Hg1 mi
7:00 am82 °FWarm.1 mph84%29.77 "Hg0 mi
6:00 am79 °FScattered clouds.No wind100%29.74 "Hg4 mi
5:00 am77 °FWarm.No wind100%29.74 "Hg1 mi
4:00 am77 °FWarm.1 mph100%29.74 "Hg1 mi
3:00 am77 °FWarm.1 mph100%29.74 "Hg1 mi
1:00 am79 °FWarm.2 mph89%29.74 "Hg1 mi
12:00 am79 °FWarm.No wind94%29.77 "Hg1 mi
11:00 pm
Tue, Jun 27
79 °FWarm.No wind94%29.77 "Hg1 mi
10:00 pm81 °FWarm.2 mph84%29.77 "Hg1 mi
9:00 pm81 °FWarm.3 mph79%29.74 "Hg1 mi
Weather by CustomWeather, © 2017

See weather overviewHow to use our weather pages